Tallevast, FL

4:10 PM EST on March 01, 2017 (GMT -0500)
Sarasota-bradenton

Weather History for KSRQ - November, 2011

Change the Weather History Date:

Sunday, November 6, 2011

  Actual Average Record
Temperature  
Mean Temperature 71 °F 71 °F  
Max Temperature 82 °F 81 °F 92 °F (1972)
Min Temperature 59 °F 62 °F 40 °F (1976)
Degree Days  
Heating Degree Days 0 0  
Month to date heating degree days 0 0  
Since 1 July heating degree days 2 3  
Cooling Degree Days 6 7  
Month to date cooling degree days 29 43  
Year to date cooling degree days 3366 3187  
Growing Degree Days 20 (Base 50)    
Moisture  
Dew Point 59 °F    
Average Humidity 73    
Maximum Humidity 90    
Minimum Humidity 49    
Precipitation  
Precipitation 0.00 in 0.08 in 1.36 in (1919)
Month to date precipitation 0.02 0.49  
Year to date precipitation 39.39 49.04  
Sea Level Pressure  
Sea Level Pressure 30.11 in    
Wind  
Wind Speed 10 mph (NE)    
Max Wind Speed 22 mph    
Max Gust Speed 28 mph    
Visibility 10 miles    
Events      
T = Trace of Precipitation, MM = Missing Value Source: NWS Daily Summary

Daily Weather History Graph

Daily Weather History Graph

Search for Another Location

Airport or City:

Trip Planner

Search our weather history database for the weather conditions in past years. The results will help you decide how hot, cold, wet, or windy it might be!

Date:

Astronomy

Nov. 06, 2011 Rise Set
Actual Time 6:43 AM EST 5:43 PM EST
Civil Twilight 6:19 AM EST 6:07 PM EST
Nautical Twilight 5:51 AM EST 6:35 PM EST
Astronomical Twilight 5:24 AM EST 7:02 PM EST
Moon 3:12 PM EST (11/6) 3:06 AM EST (11/6)
Length of Visible Light 11h 47m
Length of Day
10h 59m
Waxing Gibbous, 85% of the Moon is Illuminated
Nov 6
Waxing Gibbous
Nov 10
Full
Nov 18
Last Quarter
Nov 25
New
Dec 2
First Quarter

Hourly Weather History & Observations

Time (EST) Temp. Heat Index Dew Point Humidity Pressure Visibility Wind Dir Wind Speed Gust Speed Precip Events Conditions
12:53 AM 63.0 °F - 55.0 °F 75% 30.10 in 10.0 mi North 10.4 mph 16.1 mph N/A   Overcast
1:53 AM 63.0 °F - 55.0 °F 75% 30.09 in 10.0 mi North 9.2 mph - N/A   Overcast
1:23 AM 62.6 °F - 55.4 °F 77% 30.08 in 10.0 mi NNE 9.2 mph - N/A   Overcast
1:43 AM 62.6 °F - 55.4 °F 77% 30.08 in 10.0 mi NNE 5.8 mph 16.1 mph N/A   Overcast
1:53 AM 63.0 °F - 55.9 °F 78% 30.08 in 10.0 mi NNE 8.1 mph - N/A   Overcast
2:53 AM 62.1 °F - 57.0 °F 84% 30.08 in 10.0 mi NNE 9.2 mph - N/A   Overcast
3:53 AM 61.0 °F - 55.9 °F 83% 30.08 in 10.0 mi NNE 5.8 mph - N/A   Clear
4:53 AM 60.1 °F - 55.9 °F 86% 30.08 in 10.0 mi NNE 10.4 mph - N/A   Clear
5:53 AM 60.1 °F - 55.9 °F 86% 30.09 in 10.0 mi NNE 6.9 mph - N/A   Clear
6:53 AM 59.0 °F - 55.9 °F 90% 30.11 in 10.0 mi NNE 6.9 mph - N/A   Clear
7:53 AM 61.0 °F - 57.0 °F 87% 30.12 in 10.0 mi NE 10.4 mph 19.6 mph N/A   Clear
8:53 AM 68.0 °F - 59.0 °F 73% 30.14 in 10.0 mi NE 10.4 mph - N/A   Clear
9:53 AM 73.0 °F - 59.0 °F 61% 30.16 in 10.0 mi ENE 10.4 mph - N/A   Clear
10:53 AM 77.0 °F - 61.0 °F 58% 30.16 in 10.0 mi NE 10.4 mph - N/A   Clear
11:53 AM 78.1 °F - 61.0 °F 56% 30.14 in 10.0 mi ENE 13.8 mph 25.3 mph N/A   Partly Cloudy
12:53 PM 79.0 °F - 61.0 °F 54% 30.11 in 10.0 mi East 15.0 mph 19.6 mph N/A   Overcast
1:53 PM 81.0 °F 81.6 °F 60.1 °F 49% 30.08 in 10.0 mi NNE 10.4 mph 17.3 mph N/A   Partly Cloudy
2:53 PM 81.0 °F 81.3 °F 59.0 °F 47% 30.08 in 10.0 mi NE 9.2 mph 21.9 mph N/A   Scattered Clouds
3:53 PM 77.0 °F - 61.0 °F 58% 30.09 in 10.0 mi ENE 13.8 mph 24.2 mph N/A   Overcast
4:53 PM 75.0 °F - 61.0 °F 62% 30.10 in 10.0 mi ENE 13.8 mph 21.9 mph N/A   Overcast
5:53 PM 73.4 °F - 62.6 °F 69% 30.12 in 10.0 mi NE 13.8 mph 21.9 mph N/A   Overcast
6:53 PM 70.0 °F - 63.0 °F 78% 30.13 in 10.0 mi NE 10.4 mph 17.3 mph N/A   Scattered Clouds
7:53 PM 69.1 °F - 63.0 °F 81% 30.15 in 10.0 mi NE 8.1 mph - N/A   Clear
8:53 PM 68.0 °F - 63.0 °F 84% 30.16 in 10.0 mi NE 10.4 mph - N/A   Clear
9:53 PM 66.9 °F - 63.0 °F 87% 30.16 in 10.0 mi NE 8.1 mph - N/A   Clear
10:53 PM 66.0 °F - 63.0 °F 90% 30.16 in 10.0 mi NE 6.9 mph - N/A   Clear